Weather History for Crescent City, CA

Change the Weather History Date:

Tuesday, December 11, 2012

  Actual Average Record
Temperature  
Mean Temperature 46 °F 47 °F  
Max Temperature 51 °F 54 °F 72 °F (1951)
Min Temperature 41 °F 41 °F 23 °F (1972)
Degree Days  
Heating Degree Days 19 18  
Month to date heating degree days 162 192  
Since 1 July heating degree days 1661 1809  
Cooling Degree Days 0 0  
Month to date cooling degree days 0 0  
Year to date cooling degree days 0 0  
Moisture  
Dew Point 44 °F    
Average Humidity 87    
Maximum Humidity 100    
Minimum Humidity 74    
Precipitation  
Precipitation 0.35 in 0.32 in 3.66 in (1956)
Month to date precipitation 4.60 3.25  
Year to date precipitation 67.59 56.01  
Since 1 July precipitation 24.21 19.08  
Snow  
Snow 0.00 in - - ()
Month to date snowfall 0.0  
Since 1 July snowfall 0.0  
Snow Depth 0.00 in    
Sea Level Pressure  
Sea Level Pressure 29.95 in    
Wind  
Wind Speed 10 mph (SSE)    
Max Wind Speed 31 mph    
Max Gust Speed 37 mph    
Visibility 8 miles    
Events Rain    
T = Trace of Precipitation, MM = Missing Value Source: NWS Daily Summary

Daily Weather History Graph

Daily Weather History Graph

Search for Another Location

Airport:

Trip Planner

Search our weather history database for the weather conditions in past years. The results will help you decide how hot, cold, wet, or windy it might be!

Date:

Astronomy

Dec. 11, 2012 Rise Set
Actual Time 7:34 AM PST 4:46 PM PST
Civil Twilight 7:03 AM PST 5:17 PM PST
Nautical Twilight 6:28 AM PST 5:52 PM PST
Astronomical Twilight 5:54 AM PST 6:26 PM PST
Moon 5:35 AM PST (12/11) 3:31 PM PST (12/11)
Length of Visible Light 10h 14m
Length of Day
9h 11m
Waning Crescent, 4% of the Moon is Illuminated
Dec 11
Waning Crescent
Dec 13
New
Dec 19
First Quarter
Dec 28
Full
Jan 4
Last Quarter

Hourly Weather History & Observations

Time (PST) Temp. Windchill Dew Point Humidity Pressure Visibility Wind Dir Wind Speed Gust Speed Precip Events Conditions
12:13 AM 46.4 °F 44.3 °F 44.6 °F 93% 30.16 in 10.0 mi SE 4.6 mph - N/A   Scattered Clouds
12:21 AM 44.6 °F 41.4 °F 44.6 °F 100% 30.16 in 10.0 mi SE 5.8 mph - N/A   Mostly Cloudy
12:56 AM 43.0 °F 41.3 °F 42.1 °F 97% 30.14 in 6.0 mi ESE 3.5 mph - N/A   Scattered Clouds
1:08 AM 42.8 °F 40.1 °F 42.8 °F 100% 30.14 in 1.5 mi SE 4.6 mph - N/A   Partly Cloudy
1:11 AM 42.8 °F 40.1 °F 42.8 °F 100% 30.14 in 1.0 mi ESE 4.6 mph - N/A   Mist
1:18 AM 42.8 °F 41.1 °F 41.0 °F 93% 30.13 in 1.2 mi ESE 3.5 mph - N/A   Partly Cloudy
1:21 AM 42.8 °F 41.1 °F 42.8 °F 100% 30.13 in 2.0 mi ESE 3.5 mph - N/A   Partly Cloudy
1:29 AM 44.6 °F 43.1 °F 44.6 °F 100% 30.13 in 6.0 mi SE 3.5 mph - N/A   Partly Cloudy
1:56 AM 42.1 °F 39.2 °F 41.0 °F 96% 30.12 in 1.8 mi SE 4.6 mph - N/A   Scattered Clouds
2:02 AM 44.6 °F 42.2 °F 42.8 °F 93% 30.12 in 2.5 mi SE 4.6 mph - N/A   Mostly Cloudy
2:09 AM 46.4 °F 43.5 °F 44.6 °F 93% 30.11 in 8.0 mi SE 5.8 mph - N/A   Mostly Cloudy
2:56 AM 46.0 °F - 46.0 °F 100% 30.12 in 10.0 mi Calm Calm - N/A   Overcast
3:22 AM 44.6 °F 43.1 °F 44.6 °F 100% 30.11 in 10.0 mi ESE 3.5 mph - N/A   Overcast
3:38 AM 46.4 °F 45.2 °F 44.6 °F 93% 30.10 in 10.0 mi East 3.5 mph - N/A   Overcast
3:56 AM 46.0 °F 43.9 °F 45.0 °F 96% 30.11 in 10.0 mi East 4.6 mph - N/A   Overcast
4:04 AM 44.6 °F 42.2 °F 44.6 °F 100% 30.10 in 10.0 mi East 4.6 mph - N/A   Overcast
4:56 AM 45.0 °F 41.8 °F 43.0 °F 93% 30.07 in 10.0 mi East 5.8 mph - N/A   Overcast
5:56 AM 46.0 °F 44.8 °F 44.1 °F 93% 30.05 in 10.0 mi ENE 3.5 mph - N/A   Overcast
6:56 AM 46.0 °F - 44.1 °F 93% 30.04 in 10.0 mi Calm Calm - N/A   Overcast
7:56 AM 46.0 °F 44.8 °F 44.1 °F 93% 30.02 in 10.0 mi ESE 3.5 mph - N/A   Overcast
9:11 AM 48.2 °F - 46.4 °F 93% 30.01 in 10.0 mi South 12.7 mph - N/A   Overcast
9:48 AM 48.2 °F - 44.6 °F 87% 30.00 in 10.0 mi South 12.7 mph - N/A   Overcast
9:56 AM 50.0 °F - 46.0 °F 86% 30.01 in 10.0 mi South 13.8 mph - N/A   Overcast
10:33 AM 51.8 °F - 46.4 °F 82% 30.00 in 10.0 mi SSW 9.2 mph - N/A   Overcast
10:42 AM 50.0 °F - 44.6 °F 82% 30.01 in 10.0 mi SW 9.2 mph - N/A   Overcast
10:51 AM 50.0 °F - 44.6 °F 82% 30.00 in 10.0 mi SSW 9.2 mph - N/A   Overcast
10:56 AM 50.0 °F - 44.1 °F 80% 30.01 in 10.0 mi SW 9.2 mph - N/A   Overcast
11:42 AM 50.0 °F - 44.6 °F 82% 29.97 in 10.0 mi SSW 9.2 mph - N/A   Mostly Cloudy
11:56 AM 50.0 °F - 43.0 °F 77% 29.98 in 10.0 mi SSW 11.5 mph - N/A   Overcast
12:03 PM 50.0 °F - 42.8 °F 76% 29.97 in 10.0 mi SSW 13.8 mph - N/A   Overcast
12:17 PM 50.0 °F - 42.8 °F 76% 29.95 in 10.0 mi South 12.7 mph - N/A   Overcast
12:56 PM 50.0 °F - 42.1 °F 74% 29.91 in 10.0 mi South 17.3 mph 25.3 mph N/A   Overcast
1:44 PM 48.2 °F - 44.6 °F 87% 29.87 in 2.5 mi SSE 18.4 mph 26.5 mph 0.08 in Rain Rain
1:54 PM 48.2 °F - 44.6 °F 87% 29.87 in 3.0 mi South 19.6 mph 27.6 mph 0.11 in Rain Rain
1:56 PM 48.9 °F - 45.0 °F 86% 29.87 in 3.0 mi South 21.9 mph 27.6 mph 0.12 in Rain Rain
2:33 PM 48.2 °F - 46.4 °F 93% 29.83 in 5.0 mi SSE 18.4 mph 25.3 mph 0.06 in Rain Light Rain
2:56 PM 48.9 °F - 46.0 °F 90% 29.82 in 3.0 mi SSE 19.6 mph 26.5 mph 0.12 in Rain Rain
3:07 PM 48.2 °F - 46.4 °F 93% 29.80 in 5.0 mi SSE 20.7 mph 27.6 mph 0.01 in Rain Light Rain
3:32 PM 48.2 °F - 46.4 °F 93% 29.79 in 5.0 mi SSE 19.6 mph 26.5 mph 0.02 in Rain Light Rain
3:52 PM 48.2 °F - 46.4 °F 93% 29.78 in 2.5 mi SSE 19.6 mph 26.5 mph 0.03 in Rain Light Rain
3:56 PM 48.0 °F - 46.0 °F 93% 29.79 in 2.5 mi SSE 18.4 mph 26.5 mph 0.03 in Rain Light Rain
4:05 PM 48.2 °F - 46.4 °F 93% 29.78 in 3.0 mi SSE 18.4 mph 29.9 mph 0.01 in Rain Light Rain
4:26 PM 48.2 °F - 46.4 °F 93% 29.78 in 5.0 mi SSE 15.0 mph 25.3 mph 0.03 in Rain Light Rain
4:56 PM 48.9 °F - 46.9 °F 93% 29.79 in 9.0 mi South 19.6 mph 26.5 mph 0.05 in Rain Light Rain
5:19 PM 50.0 °F - 48.2 °F 94% 29.78 in 4.0 mi WNW 11.5 mph - 0.02 in Rain Light Rain
5:29 PM 48.2 °F - 46.4 °F 93% 29.79 in 6.0 mi NW 15.0 mph - 0.02 in Rain Light Rain
5:37 PM 48.2 °F - 46.4 °F 93% 29.79 in 9.0 mi WNW 12.7 mph - 0.02 in Rain Light Rain
5:49 PM 50.0 °F - 46.4 °F 87% 29.79 in 10.0 mi WNW 12.7 mph - 0.02 in   Overcast
5:56 PM 50.0 °F - 46.9 °F 89% 29.80 in 10.0 mi NW 11.5 mph - 0.02 in   Overcast
6:09 PM 50.0 °F - 46.4 °F 87% 29.79 in 10.0 mi NW 9.2 mph - 0.00 in Rain Light Rain
6:35 PM 48.2 °F - 44.6 °F 87% 29.79 in 10.0 mi NW 19.6 mph - 0.00 in Rain Light Rain
6:56 PM 50.0 °F - 45.0 °F 83% 29.80 in 10.0 mi WNW 15.0 mph 23.0 mph 0.00 in   Overcast
7:56 PM 48.9 °F - 43.0 °F 80% 29.81 in 10.0 mi WNW 18.4 mph 29.9 mph 0.01 in   Overcast
8:56 PM 48.9 °F - 41.0 °F 74% 29.81 in 10.0 mi NNW 17.3 mph 23.0 mph 0.00 in   Overcast
9:56 PM 46.9 °F - 41.0 °F 80% 29.83 in 10.0 mi North 9.2 mph 18.4 mph 0.00 in   Overcast
10:56 PM 46.0 °F - 41.0 °F 83% 29.83 in 10.0 mi Calm Calm - N/A   Mostly Cloudy
11:56 PM 44.1 °F 42.5 °F 39.9 °F 85% 29.84 in 10.0 mi East 3.5 mph - N/A   Mostly Cloudy